Time,TemperatureF,DewpointF,PressureIn,WindDirection,WindDirectionDegrees,WindSpeedMPH,WindSpeedGustMPH,Humidity,HourlyPrecipIn,Conditions,Clouds,dailyrainin,SolarRadiationWatts/m^2,SoftwareType,DateUTC
2013-09-10 00:02:00,82.1,75.0,29.98,ENE,60,0.0,-999.0,78,-99.99,,,0.00,0,weatherlink.com 1.10,2013-09-10 04:02:00,
2013-09-10 00:17:00,82.0,75.0,29.97,ENE,60,0.0,-999.0,79,-99.99,,,0.00,0,weatherlink.com 1.10,2013-09-10 04:17:00,
2013-09-10 00:32:00,82.2,77.0,29.96,ENE,65,0.0,-999.0,83,-99.99,,,0.00,0,weatherlink.com 1.10,2013-09-10 04:32:00,
2013-09-10 00:47:00,81.6,76.0,29.96,ENE,74,0.0,-999.0,84,-99.99,,,0.00,0,weatherlink.com 1.10,2013-09-10 04:47:00,
2013-09-10 01:02:00,81.2,76.0,29.96,ENE,74,0.0,-999.0,84,-99.99,,,0.00,0,weatherlink.com 1.10,2013-09-10 05:02:00,
2013-09-10 01:17:00,80.8,76.0,29.96,ENE,75,0.0,-999.0,84,-99.99,,,0.00,0,weatherlink.com 1.10,2013-09-10 05:17:00,
2013-09-10 01:32:00,80.5,75.0,29.96,ENE,73,2.0,-999.0,83,-99.99,,,0.00,0,weatherlink.com 1.10,2013-09-10 05:32:00,
2013-09-10 01:47:00,80.9,75.0,29.96,NE,55,0.0,-999.0,82,-99.99,,,0.00,0,weatherlink.com 1.10,2013-09-10 05:47:00,
2013-09-10 02:02:00,81.1,75.0,29.96,ENE,65,0.0,-999.0,82,-99.99,,,0.00,0,weatherlink.com 1.10,2013-09-10 06:02:00,
2013-09-10 02:17:00,81.1,75.0,29.96,ENE,74,1.0,-999.0,81,-99.99,,,0.00,0,weatherlink.com 1.10,2013-09-10 06:17:00,
2013-09-10 02:32:00,81.1,75.0,29.96,ENE,69,0.0,-999.0,82,-99.99,,,0.00,0,weatherlink.com 1.10,2013-09-10 06:32:00,
2013-09-10 02:47:00,81.2,75.0,29.96,ENE,59,3.0,-999.0,82,-99.99,,,0.00,0,weatherlink.com 1.10,2013-09-10 06:47:00,
2013-09-10 03:02:00,81.3,75.0,29.95,East,87,0.0,-999.0,82,-99.99,,,0.00,0,weatherlink.com 1.10,2013-09-10 07:02:00,
2013-09-10 03:17:00,81.2,76.0,29.95,NE,46,0.0,-999.0,83,-99.99,,,0.00,0,weatherlink.com 1.10,2013-09-10 07:17:00,
2013-09-10 03:32:00,78.8,74.0,29.95,East,79,0.0,-999.0,84,-99.99,,,0.08,0,weatherlink.com 1.10,2013-09-10 07:32:00,
2013-09-10 03:47:00,78.1,74.0,29.95,East,88,0.0,-999.0,88,-99.99,,,0.11,0,weatherlink.com 1.10,2013-09-10 07:47:00,
2013-09-10 04:02:00,77.6,74.0,29.94,East,88,0.0,-999.0,89,-99.99,,,0.11,0,weatherlink.com 1.10,2013-09-10 08:02:00,
2013-09-10 04:17:00,77.2,74.0,29.94,East,88,0.0,-999.0,89,-99.99,,,0.11,0,weatherlink.com 1.10,2013-09-10 08:17:00,
2013-09-10 04:32:00,77.2,74.0,29.95,East,88,0.0,-999.0,90,-99.99,,,0.11,0,weatherlink.com 1.10,2013-09-10 08:32:00,
2013-09-10 04:47:00,77.1,74.0,29.95,East,87,0.0,-999.0,91,-99.99,,,0.11,0,weatherlink.com 1.10,2013-09-10 08:47:00,
2013-09-10 05:02:00,77.8,75.0,29.94,ENE,61,0.0,-999.0,92,-99.99,,,0.11,0,weatherlink.com 1.10,2013-09-10 09:02:00,
2013-09-10 05:17:00,78.1,76.0,29.95,NE,56,0.0,-999.0,92,-99.99,,,0.11,0,weatherlink.com 1.10,2013-09-10 09:17:00,
2013-09-10 05:32:00,78.2,75.0,29.95,ENE,64,0.0,-999.0,91,-99.99,,,0.11,0,weatherlink.com 1.10,2013-09-10 09:32:00,
2013-09-10 05:47:00,78.6,76.0,29.95,ENE,62,0.0,-999.0,90,-99.99,,,0.11,0,weatherlink.com 1.10,2013-09-10 09:47:00,
2013-09-10 06:02:00,79.0,76.0,29.96,East,84,3.0,-999.0,89,-99.99,,,0.11,0,weatherlink.com 1.10,2013-09-10 10:02:00,
2013-09-10 06:17:00,79.1,75.0,29.96,NE,54,4.0,-999.0,88,-99.99,,,0.11,0,weatherlink.com 1.10,2013-09-10 10:17:00,
2013-09-10 06:32:00,79.1,75.0,29.96,NE,55,0.0,-999.0,87,-99.99,,,0.11,0,weatherlink.com 1.10,2013-09-10 10:32:00,
2013-09-10 06:47:00,79.1,75.0,29.97,ENE,58,0.0,-999.0,87,-99.99,,,0.11,0,weatherlink.com 1.10,2013-09-10 10:47:00,
2013-09-10 07:02:00,79.2,75.0,29.97,East,85,2.0,-999.0,87,-99.99,,,0.11,0,weatherlink.com 1.10,2013-09-10 11:02:00,
2013-09-10 07:17:00,78.8,74.0,29.98,ENE,75,0.0,-999.0,85,-99.99,,,0.11,21,weatherlink.com 1.10,2013-09-10 11:17:00,
2013-09-10 07:32:00,78.9,74.0,29.98,ENE,75,0.0,-999.0,86,-99.99,,,0.11,25,weatherlink.com 1.10,2013-09-10 11:32:00,
2013-09-10 07:47:00,79.5,75.0,29.98,ENE,76,0.0,-999.0,87,-99.99,,,0.11,83,weatherlink.com 1.10,2013-09-10 11:47:00,
2013-09-10 08:02:00,80.8,76.0,29.99,East,94,1.0,-999.0,85,-99.99,,,0.11,139,weatherlink.com 1.10,2013-09-10 12:02:00,
2013-09-10 08:17:00,82.1,76.0,30.00,East,83,3.0,-999.0,82,-99.99,,,0.11,192,weatherlink.com 1.10,2013-09-10 12:17:00,
2013-09-10 08:32:00,82.9,77.0,30.00,East,86,0.0,-999.0,81,-99.99,,,0.11,202,weatherlink.com 1.10,2013-09-10 12:32:00,
2013-09-10 08:47:00,83.2,76.0,30.01,East,80,2.0,-999.0,79,-99.99,,,0.11,97,weatherlink.com 1.10,2013-09-10 12:47:00,
2013-09-10 09:03:00,83.2,77.0,30.01,East,94,2.0,-999.0,82,-99.99,,,0.11,341,weatherlink.com 1.10,2013-09-10 13:03:00,
2013-09-10 09:18:00,83.6,77.0,30.01,East,86,4.0,-999.0,79,-99.99,,,0.11,396,weatherlink.com 1.10,2013-09-10 13:18:00,
2013-09-10 09:33:00,84.1,77.0,30.01,ENE,70,0.0,-999.0,80,-99.99,,,0.11,448,weatherlink.com 1.10,2013-09-10 13:33:00,
2013-09-10 09:48:00,84.6,77.0,30.01,East,101,4.0,-999.0,77,-99.99,,,0.11,497,weatherlink.com 1.10,2013-09-10 13:48:00,
2013-09-10 10:03:00,85.2,77.0,30.02,East,100,5.0,-999.0,75,-99.99,,,0.11,547,weatherlink.com 1.10,2013-09-10 14:03:00,
2013-09-10 10:18:00,85.9,77.0,30.02,East,84,6.0,-999.0,74,-99.99,,,0.11,594,weatherlink.com 1.10,2013-09-10 14:18:00,
2013-09-10 10:33:00,86.0,77.0,30.02,ENE,69,3.0,-999.0,74,-99.99,,,0.11,661,weatherlink.com 1.10,2013-09-10 14:33:00,
2013-09-10 10:48:00,86.1,77.0,30.03,East,96,2.0,-999.0,74,-99.99,,,0.11,178,weatherlink.com 1.10,2013-09-10 14:48:00,
2013-09-10 11:03:00,86.9,77.0,30.03,ENE,75,1.0,-999.0,72,-99.99,,,0.11,719,weatherlink.com 1.10,2013-09-10 15:03:00,
2013-09-10 11:18:00,87.0,77.0,30.03,East,100,5.0,-999.0,72,-99.99,,,0.11,784,weatherlink.com 1.10,2013-09-10 15:18:00,
2013-09-10 11:33:00,87.3,77.0,30.02,East,89,4.0,-999.0,72,-99.99,,,0.11,854,weatherlink.com 1.10,2013-09-10 15:33:00,
2013-09-10 11:48:00,86.6,77.0,30.02,ESE,107,8.0,-999.0,72,-99.99,,,0.11,232,weatherlink.com 1.10,2013-09-10 15:48:00,
2013-09-10 12:03:00,86.2,77.0,30.02,East,100,1.0,-999.0,73,-99.99,,,0.11,872,weatherlink.com 1.10,2013-09-10 16:03:00,
2013-09-10 12:18:00,85.6,79.0,30.02,East,84,3.0,-999.0,80,-99.99,,,0.12,997,weatherlink.com 1.10,2013-09-10 16:18:00,
2013-09-10 12:33:00,84.3,79.0,30.02,NE,40,0.0,-999.0,84,-99.99,,,0.13,879,weatherlink.com 1.10,2013-09-10 16:33:00,
2013-09-10 12:48:00,85.6,78.0,30.02,NE,46,10.0,-999.0,78,-99.99,,,0.13,200,weatherlink.com 1.10,2013-09-10 16:48:00,
2013-09-10 13:03:00,85.0,77.0,30.02,ESE,113,0.0,-999.0,78,-99.99,,,0.13,497,weatherlink.com 1.10,2013-09-10 17:03:00,
2013-09-10 13:18:00,81.4,74.0,30.02,NNE,24,5.0,-999.0,79,-99.99,,,0.13,153,weatherlink.com 1.10,2013-09-10 17:18:00,
2013-09-10 13:33:00,80.5,75.0,30.01,ENE,64,0.0,-999.0,83,-99.99,,,0.13,132,weatherlink.com 1.10,2013-09-10 17:33:00,
2013-09-10 13:48:00,80.1,76.0,30.00,NE,49,4.0,-999.0,87,-99.99,,,0.14,316,weatherlink.com 1.10,2013-09-10 17:48:00,
2013-09-10 14:03:00,84.4,77.0,30.00,ENE,67,7.0,-999.0,78,-99.99,,,0.14,882,weatherlink.com 1.10,2013-09-10 18:03:00,
2013-09-10 14:18:00,86.2,77.0,30.00,ENE,71,4.0,-999.0,74,-99.99,,,0.14,847,weatherlink.com 1.10,2013-09-10 18:18:00,
2013-09-10 14:33:00,86.1,77.0,30.00,ENE,58,4.0,-999.0,75,-99.99,,,0.14,830,weatherlink.com 1.10,2013-09-10 18:33:00,
2013-09-10 14:48:00,87.3,78.0,30.00,ENE,69,3.0,-999.0,73,-99.99,,,0.14,197,weatherlink.com 1.10,2013-09-10 18:48:00,
2013-09-10 15:03:00,84.0,77.0,29.98,ENE,58,0.0,-999.0,79,-99.99,,,0.17,128,weatherlink.com 1.10,2013-09-10 19:03:00,
2013-09-10 15:18:00,83.1,78.0,29.98,NE,53,0.0,-999.0,84,-99.99,,,0.17,248,weatherlink.com 1.10,2013-09-10 19:18:00,
2013-09-10 15:33:00,82.8,76.0,29.99,ENE,72,11.0,-999.0,79,-99.99,,,0.17,156,weatherlink.com 1.10,2013-09-10 19:33:00,
2013-09-10 15:48:00,80.7,75.0,29.99,ESE,118,9.0,-999.0,83,-99.99,,,0.17,53,weatherlink.com 1.10,2013-09-10 19:48:00,
2013-09-10 16:03:00,77.6,73.0,30.00,ENE,78,1.0,-999.0,86,-99.99,,,0.34,77,weatherlink.com 1.10,2013-09-10 20:03:00,
2013-09-10 16:18:00,76.2,73.0,29.98,NE,45,5.0,-999.0,90,-99.99,,,0.50,128,weatherlink.com 1.10,2013-09-10 20:18:00,
2013-09-10 16:33:00,76.0,73.0,29.98,ENE,57,2.0,-999.0,91,-99.99,,,0.57,323,weatherlink.com 1.10,2013-09-10 20:33:00,
2013-09-10 16:48:00,78.3,76.0,29.98,ENE,60,2.0,-999.0,91,-99.99,,,0.57,657,weatherlink.com 1.10,2013-09-10 20:48:00,
2013-09-10 17:03:00,78.9,76.0,29.98,ENE,74,0.0,-999.0,89,-99.99,,,0.57,343,weatherlink.com 1.10,2013-09-10 21:03:00,
2013-09-10 17:19:00,80.1,76.0,29.98,East,87,3.0,-999.0,88,-99.99,,,0.57,251,weatherlink.com 1.10,2013-09-10 21:19:00,
2013-09-10 17:33:00,81.1,77.0,29.98,East,81,10.0,-999.0,86,-99.99,,,0.57,260,weatherlink.com 1.10,2013-09-10 21:33:00,
2013-09-10 17:48:00,80.9,75.0,29.98,ENE,69,4.0,-999.0,83,-99.99,,,0.57,70,weatherlink.com 1.10,2013-09-10 21:48:00,
2013-09-10 18:04:00,81.3,76.0,29.98,ENE,67,0.0,-999.0,84,-99.99,,,0.57,63,weatherlink.com 1.10,2013-09-10 22:04:00,
2013-09-10 18:18:00,81.2,76.0,29.98,East,82,5.0,-999.0,85,-99.99,,,0.57,60,weatherlink.com 1.10,2013-09-10 22:18:00,
2013-09-10 18:34:00,80.0,74.0,30.00,SE,146,4.0,-999.0,82,-99.99,,,0.66,14,weatherlink.com 1.10,2013-09-10 22:34:00,
2013-09-10 18:49:00,77.5,73.0,30.00,SE,139,0.0,-999.0,87,-99.99,,,0.70,19,weatherlink.com 1.10,2013-09-10 22:49:00,
2013-09-10 19:04:00,77.7,74.0,30.00,SE,139,0.0,-999.0,89,-99.99,,,0.70,18,weatherlink.com 1.10,2013-09-10 23:04:00,
2013-09-10 19:19:00,78.4,76.0,30.00,East,86,2.0,-999.0,91,-99.99,,,0.70,9,weatherlink.com 1.10,2013-09-10 23:19:00,
2013-09-10 19:34:00,78.5,75.0,30.00,East,81,0.0,-999.0,90,-99.99,,,0.70,0,weatherlink.com 1.10,2013-09-10 23:34:00,
2013-09-10 19:49:00,78.7,76.0,29.99,NE,53,0.0,-999.0,90,-99.99,,,0.70,0,weatherlink.com 1.10,2013-09-10 23:49:00,
2013-09-10 20:04:00,79.2,76.0,29.99,East,87,2.0,-999.0,89,-99.99,,,0.70,0,weatherlink.com 1.10,2013-09-11 00:04:00,
2013-09-10 20:19:00,79.9,75.0,30.01,ENE,64,4.0,-999.0,86,-99.99,,,0.70,0,weatherlink.com 1.10,2013-09-11 00:19:00,
2013-09-10 20:34:00,80.2,75.0,30.01,East,98,2.0,-999.0,85,-99.99,,,0.70,0,weatherlink.com 1.10,2013-09-11 00:34:00,
2013-09-10 20:49:00,80.5,75.0,30.01,ENE,73,1.0,-999.0,84,-99.99,,,0.70,0,weatherlink.com 1.10,2013-09-11 00:49:00,
2013-09-10 21:04:00,80.7,75.0,30.01,ENE,76,0.0,-999.0,83,-99.99,,,0.70,0,weatherlink.com 1.10,2013-09-11 01:04:00,
2013-09-10 21:19:00,80.8,75.0,30.02,East,88,4.0,-999.0,83,-99.99,,,0.70,0,weatherlink.com 1.10,2013-09-11 01:19:00,
2013-09-10 21:34:00,80.9,75.0,30.02,East,87,3.0,-999.0,83,-99.99,,,0.70,0,weatherlink.com 1.10,2013-09-11 01:34:00,
2013-09-10 21:49:00,81.1,76.0,30.02,East,92,6.0,-999.0,83,-99.99,,,0.70,0,weatherlink.com 1.10,2013-09-11 01:49:00,
2013-09-10 22:04:00,81.3,75.0,30.02,ENE,74,0.0,-999.0,82,-99.99,,,0.70,0,weatherlink.com 1.10,2013-09-11 02:04:00,
2013-09-10 22:19:00,81.5,76.0,30.02,East,84,0.0,-999.0,82,-99.99,,,0.70,0,weatherlink.com 1.10,2013-09-11 02:19:00,
2013-09-10 22:34:00,81.4,75.0,30.02,ESE,114,5.0,-999.0,82,-99.99,,,0.70,0,weatherlink.com 1.10,2013-09-11 02:34:00,
2013-09-10 22:49:00,81.6,76.0,30.02,ENE,74,2.0,-999.0,82,-99.99,,,0.70,0,weatherlink.com 1.10,2013-09-11 02:49:00,
2013-09-10 23:04:00,81.7,76.0,30.02,NE,55,4.0,-999.0,82,-99.99,,,0.70,0,weatherlink.com 1.10,2013-09-11 03:04:00,
2013-09-10 23:19:00,81.7,75.0,30.02,East,80,1.0,-999.0,80,-99.99,,,0.70,0,weatherlink.com 1.10,2013-09-11 03:19:00,
2013-09-10 23:34:00,81.4,75.0,30.02,East,82,7.0,-999.0,81,-99.99,,,0.70,0,weatherlink.com 1.10,2013-09-11 03:34:00,
2013-09-10 23:49:00,80.3,74.0,30.02,East,91,1.0,-999.0,80,-99.99,,,0.70,0,weatherlink.com 1.10,2013-09-11 03:49:00,